Wind_Speed
4 3 3 3 3 3 3 4 4 4 4 4 3 4 3 3 4 5 5 6 6 7 8 8 8 10 11 11 11 13 13 14 14 13 15 15 16 16 16 15 14 13 13 13 12 11 11 11 12 12 12 13 15 16 17 17 17 18 18 18 19 19 20 21 21 21 22 22 22 23 24 24 25 26 26 27 27 26 27 28 28 28 30 31 31
4 4 3 2 2 2 2 2 2 2 2 2 2 2 2 2 3 5 6 6 6 7 9 9 9 10 11 12 12 13 14 15 15 14 15 15 15 16 15 14 13 12 11 10 10 10 10 10 11 12 12 12 13 14 15 15 16 16 17 18 18 18 19 20 21 21 22 24 24 24 25 25 25 26 27 28 28 28 27 27 27 27 29 30 29
6 4 4 3 2 3 2 2 1 1 1 2 3 3 3 2 3 4 5 6 6 7 9 10 11 10 11 13 13 13 13 14 16 15 15 14 14 14 13 12 11 10 9 9 9 10 10 11 12 13 12 12 13 14 15 15 16 16 17 17 18 19 20 21 22 22 23 24 25 25 25 26 26 27 28 29 29 30 30 29 29 30 31 30 28
6 5 5 3 3 3 2 2 2 2 2 3 4 5 6 5 6 6 6 7 7 7 9 10 10 10 12 13 12 12 11 12 14 14 14 13 12 12 12 11 10 9 9 10 11 11 11 11 12 13 12 12 13 15 16 16 17 17 18 18 18 19 20 21 22 22 23 24 25 25 25 25 26 27 28 29 30 31 32 32 31 31 32 31 31
7 7 6 4 3 3 3 3 3 4 5 6 7 8 8 8 9 9 9 9 9 9 10 9 9 9 10 11 10 10 11 12 12 12 12 10 10 12 12 11 10 10 10 11 12 12 12 12 12 13 12 13 15 16 16 16 16 17 18 18 19 20 21 22 22 22 23 23 24 24 25 25 26 27 27 27 28 29 30 31 32 32 32 32 32
9 8 7 6 5 5 5 5 6 7 7 6 7 7 8 9 9 9 9 9 9 9 8 7 7 8 8 9 9 10 11 11 11 10 9 8 10 12 11 10 11 12 12 13 14 14 13 12 12 13 14 15 16 15 15 16 16 17 18 19 19 20 21 22 22 22 22 23 23 24 25 26 26 27 27 28 28 29 30 30 31 32 32 32 32
10 9 9 8 7 8 7 7 6 6 6 6 6 5 6 7 7 7 7 7 7 7 6 6 7 8 9 9 10 11 12 10 9 9 6 7 10 10 9 11 12 12 14 14 14 14 12 12 12 14 15 15 15 15 15 16 16 17 18 19 19 19 21 22 22 23 23 23 24 25 26 26 27 27 28 29 29 30 31 31 32 32 33 33 32
11 10 10 10 9 9 8 7 6 5 5 5 6 5 5 5 4 5 6 6 6 5 5 6 8 9 10 11 11 12 11 8 6 6 5 7 9 7 9 12 13 14 14 14 13 13 13 12 13 13 14 14 15 15 16 16 17 18 19 19 20 21 22 22 23 24 24 24 25 26 26 26 27 28 29 30 31 32 32 33 33 33 34 34 34
12 11 11 11 11 11 11 10 8 6 6 4 4 5 4 4 3 4 4 5 5 5 6 7 8 9 10 11 11 11 8 6 5 4 4 9 8 5 10 12 13 15 14 14 13 13 14 13 13 13 14 15 15 16 16 17 17 18 19 21 21 22 23 23 23 24 24 25 25 26 26 27 28 29 30 31 32 32 33 34 34 34 34 35 35
13 12 12 12 12 12 11 12 12 10 8 6 6 6 5 4 4 4 4 5 5 6 7 7 8 9 9 9 9 7 5 4 3 2 6 9 5 6 11 11 12 15 14 14 14 13 14 14 14 16 16 16 16 17 16 17 17 18 19 20 22 23 23 23 24 24 25 26 26 27 27 28 29 30 31 32 33 33 34 34 35 35 35 36 37
14 14 14 14 14 13 12 13 15 13 11 9 8 9 9 6 6 6 5 6 6 7 7 7 8 9 8 8 7 5 3 3 1 3 8 7 4 8 11 10 11 14 14 14 13 13 14 15 16 17 17 16 16 16 16 16 17 18 19 22 24 24 24 25 25 25 26 28 29 29 28 29 30 30 31 31 32 33 33 34 34 35 36 37 37
16 16 16 17 16 17 15 13 13 13 12 12 11 11 12 9 7 7 6 7 7 6 6 6 7 8 7 7 7 4 3 1 3 3 8 4 5 10 10 9 12 13 14 14 14 15 15 16 16 16 16 16 15 15 15 16 17 19 21 24 26 27 27 28 28 29 29 31 30 29 30 30 30 30 31 32 32 33 33 34 34 35 36 37 38
18 18 17 18 18 17 15 12 11 12 12 13 13 14 14 9 7 7 7 8 7 4 5 6 5 5 6 7 5 3 2 1 5 4 7 2 5 10 9 10 13 14 14 15 16 16 16 16 16 16 16 16 15 16 16 17 19 21 23 27 30 31 31 31 31 30 31 31 29 29 30 29 30 30 31 32 32 33 33 34 35 36 37 38 39
17 19 19 19 18 16 15 14 14 15 15 15 15 16 14 9 8 8 8 9 6 4 6 5 3 4 6 6 3 1 1 2 4 3 6 2 5 9 9 13 16 15 15 16 16 15 15 15 15 16 15 15 16 16 17 18 20 23 26 30 34 35 34 32 30 29 29 29 28 29 30 30 31 32 33 33 33 34 35 35 36 37 38 39 39
17 18 19 19 18 16 15 14 14 14 14 14 14 13 11 9 8 7 8 8 6 5 6 3 3 6 5 4 1 1 1 4 1 4 3 2 5 8 11 15 17 16 15 16 15 14 14 14 15 15 14 15 16 16 16 19 23 26 31 35 37 36 34 32 30 30 31 31 32 33 34 35 35 35 34 34 34 35 36 36 37 38 39 39 39
17 18 17 16 17 16 15 13 13 13 12 11 10 10 10 9 7 7 7 6 4 5 5 2 3 5 4 2 1 2 2 1 4 2 2 3 4 7 11 16 17 16 15 15 14 14 13 14 15 15 15 15 16 16 17 22 25 29 35 38 38 37 35 35 34 35 35 36 37 38 38 39 39 38 37 36 37 37 37 38 39 39 40 40 41
17 17 16 14 15 14 14 13 11 12 12 12 12 11 10 9 7 8 8 7 6 5 4 2 1 3 4 4 2 2 1 3 6 0 3 5 4 5 10 16 17 15 15 14 13 13 12 14 15 15 16 16 18 18 19 24 28 32 37 39 37 36 36 36 37 37 38 38 39 40 41 42 42 42 42 42 42 42 41 41 41 42 42 42 43
20 20 18 17 15 14 13 14 12 13 14 15 15 14 12 9 9 9 10 10 7 6 5 4 1 1 3 3 3 2 1 3 3 1 4 6 7 7 10 16 16 13 15 14 12 12 12 14 15 15 16 16 18 20 21 25 29 34 37 36 36 35 36 36 37 38 39 40 40 41 42 43 44 44 45 45 45 44 44 43 43 44 44 45 45
22 22 22 20 19 16 14 14 13 13 16 16 15 14 13 11 10 11 11 10 8 6 5 4 2 1 1 2 3 2 1 1 2 2 3 3 6 9 11 16 15 13 14 13 10 10 12 13 14 15 16 16 18 21 23 26 30 34 35 34 34 34 35 36 37 38 38 39 40 41 42 42 42 42 42 42 42 42 42 43 43 44 45 46 47
21 21 22 22 22 20 17 17 15 13 15 15 13 13 14 12 10 8 8 9 8 5 5 4 4 3 2 3 3 4 4 3 3 2 1 1 3 4 7 13 11 10 12 10 7 8 10 12 13 14 14 14 17 20 22 26 31 33 31 31 32 33 34 35 36 37 38 39 39 40 41 39 38 38 38 38 39 39 40 41 42 43 44 45 46
23 23 22 22 21 21 20 20 19 16 15 16 14 13 13 11 10 10 9 9 6 4 5 5 5 5 5 5 5 4 4 4 4 3 2 2 2 2 5 9 6 4 8 8 5 4 7 10 12 13 13 12 15 17 20 27 32 31 29 30 31 32 33 34 35 36 37 38 39 39 39 37 36 36 36 37 38 39 40 40 42 43 44 45 46
25 25 22 20 20 19 18 18 18 17 16 15 14 14 13 12 11 10 9 8 6 6 5 5 6 6 6 6 6 6 6 5 5 4 3 4 3 4 4 5 4 3 5 8 4 3 5 8 10 12 11 11 13 15 21 29 31 29 29 31 31 32 33 34 35 36 37 38 38 38 38 35 35 35 36 37 38 39 39 40 42 42 43 45 46
25 25 22 21 20 19 17 16 15 15 16 15 15 15 14 13 11 10 10 10 9 8 6 6 6 6 6 6 6 6 5 4 5 5 3 4 4 4 4 4 5 4 4 8 5 3 3 6 8 10 10 10 12 15 24 30 29 28 30 31 31 32 33 34 35 36 37 37 37 37 36 34 34 35 36 36 37 38 39 40 41 42 43 44 45
26 25 24 22 20 19 18 17 16 16 16 15 15 14 13 12 11 12 12 12 10 7 6 7 7 6 6 6 7 7 6 5 5 4 3 3 3 3 3 3 4 4 4 7 5 3 2 5 7 11 11 9 11 19 28 30 27 28 30 31 32 31 32 35 36 37 38 37 36 34 33 32 33 34 35 36 37 38 39 40 41 42 43 44 45
27 26 25 23 22 22 20 19 18 17 16 15 15 14 14 13 12 12 14 15 12 8 8 8 8 9 9 8 9 8 7 5 4 3 2 2 3 3 4 3 4 4 3 3 3 1 1 4 8 11 11 10 15 24 29 29 27 28 30 32 32 31 32 35 37 38 38 36 33 32 31 31 32 34 35 36 37 38 39 40 41 42 43 44 44
28 26 26 25 25 25 23 21 19 17 17 16 16 15 15 13 11 12 14 16 14 12 11 11 11 12 11 10 10 8 7 5 4 3 2 2 2 2 4 4 5 4 3 2 1 1 1 5 9 11 12 14 21 27 29 29 28 28 31 32 31 30 31 34 37 39 37 34 32 31 30 31 32 34 35 36 37 38 40 41 42 42 43 44 44
29 26 26 26 27 26 24 21 20 18 18 16 15 15 15 15 14 15 15 15 15 15 15 15 14 14 13 11 9 8 6 5 4 3 2 1 0 1 3 4 3 3 3 2 1 1 3 6 8 9 11 18 26 28 28 28 26 27 31 31 29 28 30 34 38 39 38 35 33 30 30 31 33 34 35 37 38 39 40 41 42 43 44 44 46
31 28 27 28 30 27 23 20 19 19 17 15 15 16 17 18 17 16 15 16 17 18 18 17 16 15 13 11 9 7 6 5 4 3 2 2 2 1 1 3 3 3 4 2 1 2 3 6 8 7 12 21 27 27 27 26 24 27 31 29 27 26 29 35 39 40 39 37 34 31 30 32 33 35 36 37 38 39 40 41 42 43 44 45 47
32 29 27 30 31 27 24 21 19 19 17 15 16 18 19 19 18 18 19 20 20 19 19 17 16 14 12 10 8 7 6 4 3 2 2 2 2 2 1 1 2 3 4 3 3 3 3 6 7 7 14 23 27 26 27 27 26 29 31 29 28 27 30 37 41 41 40 38 34 31 30 32 34 36 37 37 38 39 40 41 43 44 45 46 48
33 28 26 31 32 29 26 22 19 20 17 16 18 19 20 20 20 21 22 22 22 21 19 17 15 13 11 9 8 6 5 4 2 1 1 2 2 2 2 2 1 2 2 3 4 3 4 8 8 11 18 25 28 27 27 27 28 30 32 31 31 31 34 39 40 41 42 38 32 30 30 32 35 37 38 38 38 39 40 41 43 44 45 46 48
33 28 26 33 35 31 27 23 20 20 18 18 20 21 21 23 24 25 24 23 23 21 19 17 15 13 11 9 8 7 5 4 2 1 1 1 2 2 2 2 1 1 2 3 4 3 7 11 12 17 22 26 28 27 26 29 30 30 33 35 34 33 37 39 39 42 43 36 28 27 30 34 37 38 38 38 37 38 40 41 43 45 45 45 48
33 28 27 34 36 31 28 23 20 20 19 20 22 23 24 26 26 26 25 24 23 21 19 16 14 12 10 9 8 7 5 4 3 2 1 1 1 1 2 2 2 2 2 3 5 7 10 13 16 21 24 27 29 27 28 32 34 33 35 38 37 36 39 40 39 40 42 36 28 26 31 35 37 38 37 38 38 39 40 42 44 45 45 45 48
33 28 28 33 33 29 27 23 20 21 22 23 24 26 27 28 27 27 26 24 22 20 18 16 14 12 10 10 8 7 6 5 4 3 2 1 1 1 2 2 2 4 3 4 6 9 11 13 16 20 24 27 28 27 29 34 36 37 39 40 38 35 34 34 35 37 41 39 32 29 33 36 36 38 39 39 40 40 40 42 45 45 46 47 49
34 31 31 34 32 30 27 22 21 23 24 26 28 29 29 28 28 27 26 24 22 20 18 16 14 12 11 10 9 7 6 5 4 4 2 1 0 1 2 3 3 4 4 4 5 8 10 12 14 17 22 25 26 27 30 34 37 39 40 40 35 31 31 31 30 33 39 40 36 33 33 34 35 37 40 41 41 40 40 42 44 46 48 49 51
35 35 36 37 34 30 26 23 24 25 27 30 31 30 29 29 28 27 26 25 22 20 18 16 14 13 12 11 9 8 7 6 5 4 2 1 0 1 2 3 3 5 6 5 5 7 10 13 13 15 19 22 24 26 29 32 35 37 38 37 32 30 33 38 36 35 35 33 32 33 32 33 36 37 38 40 40 38 39 40 42 45 48 49 50
36 37 38 37 34 30 26 25 27 28 31 33 32 30 30 29 28 27 26 24 21 19 17 15 14 14 12 10 9 8 7 6 5 4 2 1 1 1 2 3 4 5 6 6 6 7 9 12 13 14 16 18 21 24 26 29 33 35 33 32 33 34 35 37 38 39 40 35 29 29 31 34 37 37 37 37 38 38 38 39 42 45 47 48 48
36 37 38 35 31 28 26 26 29 32 34 34 32 31 30 29 28 27 26 23 21 18 16 15 14 13 11 10 9 8 7 7 5 4 3 2 2 2 2 3 4 5 6 6 6 7 9 12 15 15 15 16 18 19 20 25 32 36 33 29 33 36 34 33 33 33 36 37 31 27 32 37 38 38 37 36 36 36 36 39 43 44 46 48 48
35 38 37 33 29 26 25 27 31 34 35 34 33 31 30 29 28 27 25 22 20 17 16 15 14 12 11 10 9 8 7 6 5 4 3 2 2 1 2 2 3 5 5 5 6 7 8 11 13 15 15 15 18 17 17 20 24 28 33 35 39 40 34 31 33 31 30 30 30 29 32 35 36 36 35 36 35 35 37 41 43 44 47 49 49
35 38 36 32 29 26 26 30 34 36 36 35 33 32 31 30 28 26 24 22 19 17 16 15 13 12 11 10 9 8 7 6 5 4 3 2 1 1 2 2 4 5 4 5 6 7 9 10 12 13 15 16 17 16 17 18 17 17 22 30 38 41 36 32 33 35 33 29 30 36 39 37 35 35 35 35 35 35 40 43 43 47 49 50 51
38 38 35 31 29 28 29 34 36 36 36 35 34 33 32 30 28 25 23 21 19 18 17 15 13 12 11 10 9 8 7 6 5 4 3 3 1 0 1 2 3 3 4 5 6 7 8 10 11 12 14 15 16 16 17 17 17 17 19 22 28 32 35 36 34 32 32 31 32 40 42 39 36 36 36 35 35 38 41 42 45 50 51 52 53
38 36 32 30 29 30 33 36 37 37 36 35 34 33 32 30 27 24 22 20 19 18 17 15 14 13 12 10 9 8 7 5 4 4 3 3 3 2 1 1 2 2 3 4 6 6 7 9 11 12 13 14 15 17 18 17 17 19 21 22 23 25 28 35 36 30 24 26 32 35 34 33 35 36 35 35 37 40 40 40 46 49 50 51 44
36 33 31 30 31 34 37 38 38 38 36 35 34 32 30 28 26 23 21 20 19 18 17 16 15 14 12 11 9 8 6 5 5 4 4 4 3 2 2 1 1 2 3 4 5 6 7 8 10 11 12 13 13 15 16 17 18 19 20 21 23 25 26 28 36 37 30 27 32 33 30 29 32 34 35 35 38 39 38 41 46 46 47 48 34
33 32 32 33 35 37 39 40 39 37 36 34 32 30 28 26 24 23 21 20 19 18 16 15 15 14 13 11 9 8 7 6 6 5 4 4 3 2 1 1 1 2 3 3 4 5 6 8 9 10 11 12 14 15 16 18 18 18 21 21 21 23 23 21 27 36 37 34 33 33 31 28 28 32 33 33 35 36 38 43 45 42 45 44 31
32 33 34 36 38 39 40 40 39 37 35 34 31 29 27 24 22 21 20 20 19 18 16 15 15 14 13 12 10 9 9 8 7 5 4 3 2 2 0 2 2 2 2 2 4 5 5 7 9 10 11 12 14 15 15 17 20 21 21 21 19 19 20 19 20 28 34 34 31 30 31 29 27 30 32 32 32 35 40 43 41 38 42 41 30
33 35 36 38 39 40 40 39 38 36 35 33 30 28 26 24 22 20 20 19 18 17 17 16 15 14 13 12 11 11 10 9 7 5 3 2 2 1 1 1 1 1 1 1 3 5 5 6 8 10 11 12 15 16 16 17 20 22 22 22 21 20 19 19 21 26 30 29 26 28 30 29 28 28 31 32 31 34 40 41 37 36 39 38 29
35 36 38 39 40 40 40 39 37 36 34 32 30 28 26 24 22 21 20 19 18 17 17 16 15 14 13 13 12 11 10 9 7 5 3 3 2 1 1 1 1 2 3 2 2 3 4 5 7 10 11 13 15 16 17 17 18 20 21 22 24 23 23 22 22 24 24 21 21 25 26 27 29 28 30 32 30 33 38 35 32 34 35 33 29
36 38 40 40 40 40 39 38 37 36 34 32 30 28 26 25 23 21 21 20 19 18 17 16 15 14 14 13 12 11 11 9 7 5 4 4 3 2 2 1 2 2 2 2 2 2 4 6 8 11 13 14 16 17 17 17 16 17 19 21 23 24 25 24 21 19 17 16 18 20 22 26 29 28 29 31 30 33 34 29 29 33 31 28 28
37 39 40 40 40 40 39 38 37 35 33 31 30 28 27 25 24 22 21 20 19 18 18 17 16 15 14 13 12 11 11 9 7 5 4 4 3 3 3 3 3 3 2 2 3 3 5 8 10 13 15 16 17 17 16 15 15 16 17 19 19 18 19 22 21 18 16 16 18 18 20 26 28 27 29 30 29 30 29 24 28 34 29 23 25
38 39 40 39 39 39 38 37 36 35 33 32 30 29 27 25 24 23 22 21 20 19 19 18 17 16 15 14 13 11 10 9 7 6 5 4 4 4 3 3 4 4 3 3 5 6 6 8 10 12 14 14 13 12 11 11 12 14 15 15 15 14 15 18 19 19 19 17 16 18 20 24 26 27 28 29 27 24 22 22 28 32 27 19 19
39 39 40 39 38 38 38 37 35 35 34 32 30 29 27 25 24 23 22 21 21 20 20 19 18 16 15 14 13 11 10 9 7 7 6 5 4 4 4 3 4 3 3 5 7 7 7 8 9 10 10 10 10 10 9 9 9 9 11 13 13 14 14 14 17 22 22 16 13 18 22 23 24 25 26 28 25 18 16 22 27 28 24 16 15
39 39 39 39 38 37 36 35 34 33 33 32 30 29 27 25 24 23 22 21 21 21 20 19 18 17 15 14 12 11 10 9 8 7 6 5 5 5 4 3 2 2 4 7 9 9 8 8 8 8 8 9 10 11 10 9 8 8 9 12 12 13 14 15 16 18 16 14 15 20 22 23 23 23 22 21 18 15 17 24 27 24 20 14 12
Wind_Direction
160 150 137 125 125 114 101 92 85 84 80 78 71 64 57 22 350 331 329 338 336 326 329 339 337 331 333 332 328 329 328 328 330 328 326 326 330 332 331 330 327 327 330 330 331 332 334 336 340 341 338 335 333 330 328 327 327 326 326 326 328 329 329 329 329 329 329 326 326 326 323 321 324 321 316 315 312 310 305 301 300 293 287 282 277
188 181 170 177 167 146 135 112 91 81 71 48 19 24 9 329 309 300 300 309 313 310 322 333 331 325 326 325 321 321 321 322 324 326 328 332 337 336 333 333 332 334 340 345 350 354 356 1 4 359 355 351 346 343 340 337 334 332 332 331 330 331 332 334 335 335 333 331 330 329 327 326 327 324 321 319 318 317 314 312 314 308 294 287 284
196 193 187 199 195 183 176 141 131 331 3 339 331 332 325 314 289 289 292 299 302 301 314 320 319 320 318 318 317 317 319 317 320 327 334 339 344 347 349 351 354 358 6 13 13 11 10 10 9 7 6 2 356 353 350 347 344 340 338 334 332 333 332 333 335 335 334 333 333 331 330 329 328 326 323 321 319 319 317 316 317 313 305 299 295
204 201 193 198 198 192 194 197 233 281 320 311 309 311 309 306 296 293 296 303 308 304 309 311 310 313 314 317 321 323 324 321 324 331 338 348 357 3 5 5 10 17 22 19 12 8 6 5 3 5 5 360 356 353 351 351 350 347 341 338 338 336 334 336 338 335 334 335 335 335 334 333 332 330 327 325 323 321 320 318 316 313 311 308 305
213 201 188 190 194 189 204 233 251 270 289 288 284 291 293 292 292 292 294 299 302 301 304 307 307 312 316 323 331 332 331 330 333 336 343 359 10 8 6 7 12 15 11 5 2 360 358 358 357 356 355 352 351 351 352 353 352 349 346 348 349 345 344 345 342 339 341 342 342 341 340 338 337 336 334 332 329 326 323 321 318 314 312 311 309
212 203 193 191 207 225 235 248 258 262 271 276 277 285 289 286 285 285 288 292 292 295 299 302 305 313 322 329 333 333 333 336 340 343 354 14 14 12 16 18 15 7 359 356 355 354 354 354 351 349 348 348 350 353 357 357 355 357 358 1 360 356 357 356 350 350 352 350 349 347 344 343 342 341 339 336 334 331 328 325 323 319 316 314 312
207 207 206 203 219 239 246 248 250 253 255 264 273 284 297 292 280 279 286 291 292 294 296 297 302 310 318 323 325 330 334 336 345 356 14 26 13 18 29 20 9 360 356 357 355 354 355 353 349 349 350 353 358 2 5 4 5 9 10 9 8 5 4 1 358 358 358 354 352 349 347 346 345 342 340 337 334 332 330 329 327 325 322 319 316
211 214 218 222 232 239 242 237 237 248 249 262 266 267 304 308 282 277 282 293 297 293 292 295 302 308 313 315 317 324 333 335 348 6 31 22 11 24 26 10 5 3 2 3 2 359 360 358 357 359 2 7 11 13 15 16 18 19 16 15 14 11 7 4 2 0 358 355 352 350 349 347 344 340 338 335 333 332 331 329 327 326 324 322 319
220 225 228 235 241 243 244 236 237 246 243 257 262 256 292 316 302 285 284 293 294 294 296 301 307 311 311 311 313 320 330 337 347 16 28 10 11 26 14 6 7 11 11 11 13 9 8 11 15 20 21 22 26 28 30 29 29 27 22 18 16 12 8 5 3 360 356 354 352 350 347 344 341 338 336 334 333 331 329 327 326 324 322 320 318
226 231 235 242 245 249 250 239 239 242 238 252 266 271 276 288 298 288 291 294 290 296 300 308 313 312 311 310 314 318 322 332 345 38 11 5 25 25 10 10 14 16 19 21 21 20 21 25 31 37 37 37 40 40 37 33 30 27 22 18 16 11 7 4 2 359 355 353 350 348 345 342 339 337 335 334 332 330 327 325 324 322 319 317 315
229 232 238 243 244 249 249 243 245 240 239 252 264 273 270 276 290 284 288 289 290 297 296 307 313 311 315 315 321 321 314 327 84 56 8 10 47 20 12 19 19 21 28 30 29 31 35 39 43 46 45 44 44 41 37 31 25 21 16 14 13 9 5 3 359 356 353 350 348 346 343 340 338 337 334 332 330 328 326 324 322 319 317 315 313
233 235 240 243 246 250 248 246 248 239 240 251 258 268 268 272 281 274 277 284 290 294 292 309 313 310 312 313 318 310 304 309 151 45 12 38 43 16 19 26 23 27 33 35 35 39 45 48 49 49 46 44 41 37 34 28 20 15 10 9 9 6 2 358 355 353 350 349 348 346 343 341 338 336 333 331 328 326 324 322 320 318 316 313 311
234 235 241 245 246 248 246 245 248 243 245 250 255 265 266 265 270 267 268 279 288 290 296 311 312 312 316 312 307 290 312 170 159 28 13 64 22 13 26 28 28 32 33 35 35 41 49 50 50 47 42 40 36 32 28 22 17 12 9 6 3 1 358 356 354 352 350 350 348 345 342 340 337 334 332 330 328 326 325 322 320 318 316 314 311
236 233 238 243 241 241 242 245 249 249 249 250 255 262 260 258 262 263 263 267 269 275 294 302 301 314 317 307 294 267 315 165 173 360 12 63 12 18 34 29 29 33 33 32 32 40 51 51 47 43 38 35 31 28 24 18 13 9 6 2 359 359 358 356 355 352 351 350 347 345 343 340 337 335 333 331 329 327 325 323 321 319 317 315 313
238 235 236 239 239 241 243 244 244 245 247 249 253 256 254 252 251 252 263 264 257 271 285 290 302 308 302 290 327 337 185 159 214 327 11 43 19 25 34 27 24 30 33 31 31 40 50 50 47 39 32 29 26 24 20 14 10 5 1 358 358 359 358 357 355 353 352 350 347 346 344 341 339 337 334 332 330 328 326 325 322 320 318 315 313
237 239 238 238 238 239 238 238 240 241 242 244 244 246 247 243 238 241 253 257 245 260 266 264 310 313 307 290 311 296 184 95 331 312 72 44 39 30 26 23 20 26 33 31 33 42 48 46 43 34 26 22 19 19 14 9 8 2 357 356 357 356 355 355 354 353 352 350 348 346 344 342 340 338 335 333 332 330 328 326 324 322 320 317 315
230 234 236 243 238 228 229 233 237 237 232 235 236 238 242 233 230 241 250 251 231 222 222 216 295 320 313 299 272 270 108 4 332 82 69 24 44 39 25 21 17 24 33 32 33 40 45 41 35 27 21 16 13 14 10 6 4 358 354 354 354 352 352 352 352 351 350 349 347 345 344 342 340 339 337 335 333 332 330 327 326 323 321 319 317
230 231 234 244 240 229 232 233 233 234 232 238 240 238 239 233 233 248 257 250 222 190 192 193 183 306 303 290 276 290 25 350 329 21 7 8 30 29 19 15 17 25 30 34 34 39 43 35 28 22 16 11 9 10 7 2 357 352 351 351 350 349 350 350 350 349 349 347 346 344 343 341 340 339 336 335 333 330 329 327 325 323 321 320 317
232 233 235 241 241 233 230 227 229 234 233 238 241 233 235 242 248 254 250 227 196 177 183 182 187 248 279 257 236 227 221 280 302 319 331 360 15 11 4 4 18 27 24 33 39 42 44 29 20 16 10 6 5 4 0 354 350 349 349 348 348 348 350 350 349 349 348 347 345 344 342 341 339 336 334 332 330 328 326 324 323 321 319 318 316
228 231 235 238 237 232 230 227 226 232 232 234 235 230 236 242 235 224 208 192 182 187 196 206 231 232 215 205 207 215 219 227 227 249 278 299 335 350 342 346 8 27 24 36 38 42 43 22 14 9 2 3 2 358 354 348 345 346 346 347 349 351 352 351 350 349 348 347 345 343 342 339 335 332 331 329 327 325 323 321 320 318 317 315 314
225 227 230 233 233 232 234 232 229 235 236 232 226 220 220 216 200 191 192 194 199 215 222 232 228 208 198 192 191 193 178 176 187 198 211 240 293 297 309 326 340 3 18 33 40 57 47 17 9 3 357 359 356 352 349 343 341 344 347 350 352 353 353 352 351 350 348 347 345 343 341 336 331 330 328 326 325 323 321 319 318 317 315 313 311
226 226 225 225 226 226 233 235 233 233 224 212 205 196 192 193 196 204 215 223 233 238 230 213 191 183 190 187 181 174 161 164 175 183 197 210 248 273 277 303 309 305 358 25 56 105 53 18 6 358 353 352 350 346 342 340 341 345 350 353 354 354 354 353 351 350 348 346 343 342 338 332 329 328 326 324 323 321 320 319 317 315 314 312 311
225 225 221 219 219 222 228 227 217 208 199 192 191 190 195 200 208 219 229 237 240 236 216 184 172 173 178 182 184 176 168 167 166 173 193 206 239 266 259 277 288 275 333 14 54 119 46 18 3 355 350 344 343 338 335 339 343 347 351 354 354 355 354 353 351 350 348 345 342 339 334 329 327 326 324 323 321 320 320 318 317 315 314 313 312
221 220 216 214 214 216 215 205 194 193 196 200 199 200 208 211 217 225 230 232 227 212 187 177 173 174 171 171 171 162 153 149 147 165 194 219 243 273 294 296 290 274 312 358 37 105 34 8 357 351 349 340 334 332 334 341 346 348 351 353 355 355 353 352 352 350 347 343 339 335 329 327 326 324 322 322 321 321 320 319 318 316 316 315 314
217 215 212 210 210 208 205 200 199 205 209 213 214 217 221 221 223 224 223 222 216 196 183 181 177 178 171 157 151 145 142 141 137 150 186 232 247 283 309 296 281 291 308 334 10 69 356 348 351 349 348 341 333 332 337 345 349 349 350 352 355 354 352 352 351 348 345 340 334 330 326 325 325 324 322 322 323 322 321 320 319 318 317 317 316
214 213 211 209 206 204 205 208 213 219 221 222 226 229 227 222 216 213 214 214 210 201 193 184 176 173 163 149 144 143 143 140 138 145 173 229 258 314 319 295 258 267 296 283 315 13 311 327 340 346 345 336 334 337 342 348 349 348 350 353 354 351 348 349 347 345 342 336 331 328 326 325 324 323 323 324 325 324 322 321 319 319 318 317 317
213 215 214 208 202 200 204 211 215 218 222 225 229 225 216 211 207 210 212 204 195 190 183 176 171 165 156 151 148 147 150 147 148 146 139 152 346 336 331 329 286 265 306 278 236 284 297 315 326 335 336 332 337 342 346 349 347 344 348 351 348 345 344 344 344 344 341 336 332 328 327 327 325 324 325 326 325 324 322 321 320 319 318 318 317
213 214 213 207 203 200 201 206 209 212 219 227 226 216 209 209 210 208 198 182 177 176 173 169 166 160 155 154 153 152 154 150 146 131 97 88 42 43 8 343 333 324 324 296 288 302 298 323 327 319 325 333 338 342 346 348 344 341 346 348 343 340 339 340 343 344 340 337 334 329 329 330 327 326 326 325 324 324 322 321 321 320 319 318 317
211 209 208 205 203 201 198 203 209 213 221 228 221 213 211 210 205 194 181 173 172 171 170 167 162 159 157 157 156 156 154 145 133 104 63 51 40 47 43 5 340 330 326 316 326 315 293 327 333 313 321 333 339 343 348 349 344 343 346 346 343 339 337 340 344 344 341 339 334 330 330 330 327 326 325 324 324 323 322 323 321 319 319 319 317
209 205 204 204 203 201 199 203 211 214 220 225 218 213 210 202 191 182 175 172 171 169 168 165 161 160 160 159 159 157 151 138 124 105 65 39 40 45 28 37 36 325 307 306 312 301 303 321 325 316 324 335 342 346 348 347 344 345 347 345 343 340 339 342 345 343 342 338 333 331 332 329 327 326 325 324 324 323 323 323 320 320 321 320 319
207 202 205 206 203 200 200 203 208 212 219 222 216 209 200 189 181 176 173 172 172 169 167 165 163 162 161 162 162 158 153 149 152 150 95 51 42 38 17 17 7 306 263 284 287 290 314 319 319 324 330 338 345 347 345 345 346 346 347 346 342 340 342 344 343 342 342 337 331 333 333 329 327 326 326 325 322 321 322 321 320 321 322 322 321
204 203 210 207 201 199 199 200 205 213 219 218 210 199 188 180 177 175 173 173 172 169 166 165 164 162 163 166 165 163 161 162 172 173 135 95 54 24 2 356 337 321 278 261 265 283 308 317 321 330 337 341 346 348 344 345 348 348 347 347 344 343 344 342 340 340 342 338 332 333 333 329 327 327 327 325 322 320 319 319 320 322 323 322 322
201 204 209 204 200 202 199 198 208 216 218 211 198 187 181 178 177 175 174 173 171 169 167 165 164 164 167 171 169 169 169 171 177 179 173 156 58 360 352 357 329 321 308 265 271 287 305 318 323 331 340 342 344 347 345 344 347 348 347 347 346 342 339 336 334 336 341 340 336 334 333 329 328 329 329 325 322 320 319 319 322 325 325 324 324
202 204 205 201 200 203 201 203 212 214 211 201 188 181 180 179 177 175 174 172 171 171 169 167 166 168 172 175 173 174 174 175 180 178 178 189 9 341 342 347 318 309 309 289 285 291 300 315 323 330 338 341 340 343 345 345 345 345 345 345 343 338 335 332 328 331 338 341 337 333 332 331 331 331 328 324 321 321 322 321 323 327 329 327 327
203 203 203 201 198 199 201 208 212 208 202 192 184 181 181 179 177 175 174 173 174 174 171 169 171 173 176 177 178 177 174 174 179 180 182 193 310 321 315 323 315 308 314 316 309 300 300 312 324 328 332 336 337 340 343 343 342 341 341 341 339 335 336 337 334 332 334 335 332 331 333 333 332 331 328 325 324 325 325 324 324 328 329 328 327
202 202 200 197 195 196 200 206 206 200 194 187 181 181 181 180 179 176 173 174 176 174 172 172 174 177 179 180 180 177 175 177 181 185 191 201 255 285 297 312 316 318 329 336 325 310 304 308 317 324 325 328 331 337 341 339 338 339 339 337 336 335 336 338 338 336 334 333 330 332 334 332 332 332 329 327 328 329 328 326 327 328 328 327 326
199 199 196 193 193 196 200 204 201 194 189 184 180 180 181 181 179 176 174 175 175 172 172 176 176 177 180 181 181 177 177 182 185 191 199 207 233 256 291 303 320 337 343 342 326 314 306 304 311 320 323 324 327 334 339 337 337 339 337 333 333 335 334 334 334 332 332 332 331 333 334 333 335 335 330 329 330 330 330 328 328 328 328 328 327
197 195 194 194 195 198 202 202 197 191 185 182 181 180 181 181 179 177 175 174 173 172 174 176 176 177 179 180 181 178 180 188 191 195 202 207 228 267 301 306 340 355 346 330 320 314 306 303 308 316 322 327 328 331 337 338 336 335 335 333 334 336 334 331 330 328 328 330 330 332 333 333 335 334 331 331 332 332 332 331 330 330 329 329 328
196 193 192 195 196 198 202 199 193 188 184 181 181 181 180 180 179 177 175 173 173 174 176 176 176 177 179 179 181 181 184 191 195 198 203 206 225 298 326 339 1 359 339 319 316 314 310 310 313 317 322 326 326 326 331 337 335 332 336 335 331 332 331 327 327 328 329 331 332 333 336 336 336 333 331 333 334 335 336 334 333 332 331 332 331
194 193 193 194 195 196 198 194 189 186 183 181 182 182 181 180 180 178 176 175 175 175 175 176 176 177 179 180 182 185 187 194 199 203 207 211 208 270 354 3 9 350 329 319 315 316 317 317 318 319 321 322 325 328 331 338 340 336 337 332 322 322 325 323 323 326 329 332 333 334 338 340 338 334 334 335 336 338 338 336 336 335 335 335 335
190 192 195 196 196 194 192 189 185 184 183 183 184 184 182 180 179 179 177 177 178 178 176 176 177 178 181 183 184 186 190 196 204 210 215 215 195 160 149 354 355 328 316 317 316 320 322 320 318 319 321 321 325 330 333 337 337 328 327 326 317 316 320 319 319 323 328 331 332 332 335 338 336 333 334 336 336 338 338 337 338 338 338 340 347
189 192 195 196 195 191 187 184 183 183 184 185 185 185 184 183 181 180 178 178 179 179 179 177 177 179 183 186 187 186 188 195 206 218 225 217 190 155 164 214 320 306 305 312 313 319 321 316 314 316 317 315 321 328 327 326 327 324 323 323 319 320 323 320 320 325 331 337 335 329 330 337 336 332 333 334 334 336 337 336 338 339 340 346 3
189 191 193 192 189 187 184 183 182 183 184 185 184 185 186 185 184 182 179 179 179 180 181 180 180 183 184 186 185 183 187 195 203 215 221 207 179 137 155 260 288 270 278 299 306 313 312 304 304 308 308 308 315 322 321 321 323 322 321 320 318 320 324 321 318 321 328 337 336 326 325 334 336 331 330 331 332 333 334 336 338 341 344 351 8
188 189 189 188 186 184 183 182 182 183 184 184 183 183 184 186 187 185 182 181 180 180 182 183 184 185 185 185 184 183 188 194 198 206 211 197 163 132 180 306 291 251 243 272 286 297 299 295 297 300 303 309 313 316 319 322 321 319 317 317 316 314 314 313 308 308 318 330 331 322 321 329 335 331 327 329 331 330 332 338 341 343 348 356 10
188 187 186 185 183 182 182 182 182 183 183 183 182 183 184 185 186 186 184 183 182 182 183 185 186 187 187 186 185 186 190 194 196 200 202 194 169 138 353 321 294 303 342 295 269 275 278 285 290 292 300 309 309 309 315 319 318 317 317 314 313 312 307 305 303 303 312 325 329 322 318 322 332 331 325 327 329 328 333 341 344 344 351 0 13
187 186 185 183 182 182 183 182 182 182 183 182 182 183 184 184 185 186 185 183 182 183 185 187 188 189 189 188 188 190 190 192 196 199 194 189 198 236 320 299 270 325 342 329 296 284 280 286 290 292 299 303 302 304 311 315 314 312 311 309 310 311 305 301 301 302 309 322 327 321 313 318 330 330 322 324 327 327 334 341 344 347 354 2 12
188 185 184 182 181 181 183 183 182 182 182 182 183 184 185 185 184 185 185 183 183 184 185 188 190 191 192 192 193 192 191 194 199 200 195 195 210 256 298 291 286 321 326 315 330 321 300 295 290 291 293 295 297 300 303 309 309 304 303 302 302 304 302 302 305 307 311 323 326 319 310 316 327 327 320 323 325 326 334 340 343 349 357 2 10
186 185 183 182 182 181 182 184 183 181 181 183 184 185 187 187 185 185 185 184 184 184 186 189 191 193 195 194 193 193 194 198 202 202 205 210 227 263 284 295 310 334 348 330 342 340 312 300 294 292 292 289 290 292 294 301 304 304 304 302 300 304 305 306 310 313 318 325 327 324 316 316 324 325 319 321 324 325 331 337 344 350 355 0 10
183 184 182 182 183 183 183 184 184 182 182 183 185 186 188 188 187 186 185 184 185 186 188 190 192 194 196 195 194 196 197 201 205 209 214 219 235 257 273 295 317 345 3 330 333 342 329 314 306 299 296 295 293 294 296 298 301 306 308 304 303 309 310 309 311 314 318 322 328 333 325 318 322 324 320 320 323 323 328 337 344 348 350 360 18
184 184 183 182 183 184 185 185 186 186 184 183 185 188 189 190 190 189 187 186 186 187 189 191 193 196 197 196 196 198 200 205 211 215 218 224 238 250 264 292 322 350 338 310 324 342 338 322 315 307 305 310 319 324 319 308 308 312 302 295 300 306 304 303 306 311 314 316 329 338 328 318 322 326 324 322 322 323 332 338 341 343 345 3 38
184 184 183 183 183 184 185 186 187 189 187 185 186 189 189 190 191 191 190 188 188 189 191 193 194 196 196 197 198 201 206 211 215 218 223 228 236 246 260 284 310 319 304 306 322 336 335 326 321 319 323 331 337 339 333 320 324 323 296 286 294 298 297 298 303 310 312 312 326 335 327 319 323 327 328 328 324 325 335 337 338 340 342 359 41
Height
885 886 886 886 886 886 886 886 885 885 885 885 885 885 885 885 885 885 885 885 885 885 884 883 883 882 882 881 880 880 879 878 877 876 875 874 873 872 871 870 869 868 868 867 866 865 864 864 863 862 861 861 860 859 857 856 855 854 853 852 851 850 849 848 847 846 845 844 843 842 841 839 837 836 834 832 831 829 828 826 825 824 823 822 821
885 885 885 885 885 885 885 885 885 885 885 885 885 885 885 885 885 885 884 884 884 884 883 883 882 881 881 880 879 879 878 877 876 875 874 874 873 872 870 869 869 868 867 866 865 865 864 863 862 862 861 860 859 858 857 856 855 854 852 851 850 849 848 847 846 845 844 843 841 840 839 838 836 835 833 831 829 828 826 824 822 821 820 818 817
884 884 885 885 885 885 885 885 885 885 885 885 885 884 884 884 884 884 883 883 883 883 882 882 881 880 880 879 878 878 877 876 875 875 874 873 872 871 870 869 868 867 867 866 865 864 864 863 862 861 860 859 858 857 856 855 854 853 852 851 850 849 847 847 845 844 843 842 840 839 838 836 835 833 832 830 828 826 824 822 820 819 817 815 814
883 883 884 884 884 884 884 884 885 884 884 884 884 884 883 883 883 883 882 882 882 882 881 881 880 880 879 878 878 877 876 876 875 874 874 873 872 871 870 869 868 867 867 866 865 864 863 862 861 861 860 859 858 857 856 855 854 853 852 850 849 848 847 846 845 843 842 841 839 838 836 835 834 832 830 828 826 824 822 820 818 817 815 813 811
882 882 882 883 883 883 883 884 884 883 883 883 883 883 883 882 882 881 881 881 881 881 880 880 880 879 878 878 877 877 876 875 875 874 873 872 871 870 869 869 868 867 866 865 865 864 863 862 861 860 859 858 857 856 855 855 854 853 852 850 849 848 847 846 844 843 842 840 839 837 836 834 832 831 829 827 825 823 821 819 817 815 813 811 808
881 881 881 881 882 882 882 882 882 882 882 882 882 882 882 882 881 881 880 880 880 880 879 879 879 878 878 877 877 876 875 874 874 873 872 872 871 870 869 868 868 867 866 865 864 863 862 862 860 860 859 857 857 856 855 854 853 853 851 850 850 848 847 846 844 843 841 840 838 837 835 833 831 830 828 826 824 822 820 818 815 813 811 809 807
880 880 880 880 881 881 881 881 881 881 881 881 881 881 881 880 880 880 880 880 879 879 879 878 878 877 877 877 876 875 875 874 873 872 871 871 870 870 869 868 868 867 866 865 864 863 862 861 860 859 858 857 856 855 855 854 853 852 852 851 850 849 847 846 844 842 841 840 838 836 834 833 831 829 827 825 823 821 818 816 814 812 809 807 805
878 879 879 879 879 880 880 880 880 880 880 880 880 880 880 879 879 879 879 879 879 878 878 878 877 877 876 875 875 874 874 873 873 872 871 870 870 869 869 868 867 866 865 865 864 863 861 861 860 859 857 857 856 855 854 854 853 852 852 851 850 849 847 846 844 843 841 840 838 836 834 832 831 828 826 824 822 819 817 815 812 810 808 805 803
877 878 878 878 878 879 879 879 879 879 879 879 879 879 879 879 879 878 878 878 878 878 878 877 877 876 875 874 873 873 873 873 871 871 870 870 870 869 869 868 867 866 865 864 863 862 861 860 859 858 858 857 856 855 855 854 853 853 852 851 850 849 848 846 845 843 841 840 838 836 834 832 830 827 825 823 820 818 816 813 811 808 806 804 801
876 876 877 877 877 877 878 878 878 878 879 879 879 879 878 878 878 878 878 877 877 877 877 876 876 875 874 873 872 872 872 871 870 870 870 870 870 869 869 868 867 866 865 864 863 862 861 860 859 859 858 857 856 856 855 854 854 853 852 851 850 849 848 846 845 843 841 839 837 835 833 831 828 826 824 821 819 816 814 811 809 807 804 801 799
874 875 875 876 876 876 876 877 877 877 878 878 878 878 877 877 877 877 877 876 876 876 876 876 875 874 873 872 871 871 871 870 869 870 870 869 869 869 869 868 867 866 865 864 863 862 861 860 860 859 859 858 857 857 856 855 854 853 852 851 850 849 847 846 844 842 840 838 836 834 832 829 827 825 822 820 817 815 812 810 807 804 802 799 796
872 873 874 874 875 875 875 875 876 876 876 877 877 876 876 876 876 876 876 875 875 875 875 875 874 873 873 872 871 871 870 869 869 869 869 869 869 869 868 868 867 866 865 864 864 863 862 861 860 860 859 858 858 857 856 855 854 853 852 851 850 848 847 845 843 841 839 837 834 832 830 828 825 823 820 818 815 813 810 808 805 802 799 796 793
870 871 872 872 873 873 873 874 874 875 875 875 875 875 875 875 875 875 875 874 874 874 874 874 873 873 872 871 870 870 869 869 869 869 869 869 869 869 868 868 867 866 865 864 863 863 862 861 860 860 859 859 858 857 856 855 854 853 852 850 849 847 845 843 841 839 837 835 833 831 828 826 823 821 818 815 813 810 808 805 802 799 796 793 790
868 868 869 870 870 871 871 872 872 873 873 873 873 873 873 874 874 874 873 873 873 873 873 873 872 872 871 870 868 869 869 868 869 869 869 869 869 869 868 868 867 866 865 864 863 863 862 861 861 860 859 859 858 857 856 855 854 853 851 850 848 846 844 842 840 838 836 834 832 829 827 824 821 818 816 813 810 808 805 803 800 797 793 790 787
865 866 867 867 868 869 869 870 870 870 871 871 871 872 872 872 872 873 872 872 872 872 872 872 872 871 870 869 868 868 868 868 869 869 869 869 869 868 868 867 867 866 865 864 864 863 862 862 861 860 860 859 858 857 856 855 854 852 850 848 846 844 843 841 839 837 835 832 830 827 825 822 819 816 813 811 808 806 803 800 797 794 790 787 784
863 864 864 865 866 866 867 868 868 869 869 870 870 870 871 871 871 871 871 872 872 872 871 872 872 871 870 868 869 869 867 867 868 868 868 868 868 868 868 867 867 866 865 865 864 863 863 862 861 860 859 858 858 857 856 854 853 851 849 847 845 843 841 839 837 835 833 831 828 825 822 819 816 814 811 808 806 803 800 797 794 790 787 784 780
860 861 862 863 863 864 865 866 866 867 867 868 868 869 869 870 870 870 870 871 871 871 871 871 872 872 871 869 869 867 866 868 868 866 867 868 868 868 868 867 867 866 865 865 864 863 863 862 861 860 859 858 857 856 855 853 852 850 848 846 844 842 840 838 836 834 831 829 826 823 820 818 814 811 808 805 802 800 797 793 790 787 784 780 777
857 859 859 860 861 862 863 863 864 865 865 866 866 867 867 868 868 868 869 869 869 870 870 870 871 872 872 871 870 868 868 869 868 866 866 866 867 867 867 867 866 865 865 864 863 863 862 862 861 860 859 858 857 856 854 853 852 850 848 846 844 842 839 837 835 832 830 828 825 822 819 816 813 809 806 803 800 797 794 790 787 784 780 777 773
854 856 857 858 859 859 860 861 862 862 862 863 864 864 865 866 866 867 867 867 868 869 869 870 870 871 872 871 871 870 870 870 870 869 868 867 866 867 867 867 867 866 865 864 863 862 862 861 860 859 858 858 856 856 855 853 852 850 848 846 844 841 839 836 834 832 829 827 824 821 818 815 811 808 805 802 799 796 792 789 785 782 778 774 770
852 853 854 855 856 857 858 859 860 860 860 861 861 862 863 864 865 865 866 866 866 867 868 869 869 870 871 871 871 871 871 871 871 871 870 869 868 868 868 868 868 867 866 864 863 862 861 861 860 859 858 858 857 856 855 854 852 850 848 846 843 841 838 836 833 831 828 826 823 820 816 813 810 808 805 801 798 795 791 788 784 780 776 772 768
849 850 851 852 853 855 856 856 857 858 858 859 859 860 861 862 863 864 865 865 865 866 867 868 868 869 870 870 871 871 871 871 872 871 871 871 869 868 869 869 868 867 866 864 863 862 861 861 860 859 859 858 857 856 855 854 852 850 848 845 842 840 837 835 832 830 827 824 821 818 815 812 809 806 803 800 797 793 789 786 782 778 774 769 764
846 847 848 850 851 853 854 854 855 856 857 857 858 858 859 860 861 862 863 863 864 864 865 866 866 867 868 869 869 870 870 870 871 871 871 871 870 869 869 869 867 867 865 863 862 861 861 861 860 859 859 858 857 856 855 853 851 849 846 844 841 838 836 833 831 828 825 822 819 816 813 811 808 805 801 798 794 791 787 783 779 775 770 766 761
843 844 846 847 849 850 851 852 853 854 855 856 856 857 857 859 860 861 862 862 862 863 863 864 864 865 866 867 867 867 868 868 868 869 869 869 869 868 867 868 866 865 864 862 861 861 860 860 860 859 858 857 856 855 854 852 850 847 844 842 839 836 834 831 829 826 823 820 817 814 812 809 806 803 799 796 792 788 785 781 777 772 767 762 757
840 841 843 845 846 847 849 850 851 852 853 854 855 855 856 857 858 859 860 860 861 861 862 862 862 863 863 864 865 865 865 866 867 867 868 868 868 867 866 865 864 862 862 861 860 860 860 859 859 858 857 856 855 854 852 850 847 845 842 840 837 835 832 830 827 824 821 818 816 813 810 808 804 801 797 793 790 786 782 778 773 769 764 759 754
837 838 840 842 843 845 846 848 849 850 852 852 853 854 854 855 856 857 858 858 859 859 860 860 860 861 861 861 862 862 863 864 865 866 867 867 867 866 865 864 863 861 860 860 859 859 859 858 857 856 855 855 854 852 850 848 845 843 840 837 835 833 831 828 825 822 818 816 814 812 809 806 802 798 794 791 787 783 779 775 770 765 761 756 752
835 836 838 839 841 842 844 845 847 848 850 851 851 852 853 854 854 855 855 856 856 857 858 858 859 859 859 860 860 861 862 863 864 865 866 866 866 865 864 862 861 860 859 859 858 858 858 857 856 855 854 853 852 850 848 845 843 840 838 835 833 831 829 826 822 819 816 814 812 810 807 804 800 795 792 788 785 781 776 772 767 762 758 754 749
832 834 836 837 839 840 841 843 844 846 847 849 849 850 851 851 852 853 853 854 855 856 857 857 858 858 858 859 859 860 862 862 863 864 864 865 864 864 864 862 860 858 857 857 857 857 856 856 855 854 853 852 850 848 846 843 841 838 836 833 831 829 826 823 820 817 814 812 810 807 805 801 797 792 789 786 782 778 773 769 764 760 755 751 746
829 831 833 834 836 838 839 841 842 843 845 846 847 848 848 849 850 851 852 852 854 855 856 857 857 858 857 858 859 860 861 862 862 863 863 863 863 863 863 863 861 858 856 855 855 855 854 854 853 852 851 850 848 846 844 841 839 836 833 831 829 826 824 821 818 815 811 809 807 805 803 799 794 790 787 784 780 775 771 766 762 757 753 748 743
826 828 830 832 834 835 837 838 840 841 843 844 845 845 846 847 848 849 850 851 853 854 855 856 856 857 857 857 858 859 860 860 861 861 861 861 862 862 862 863 862 860 858 856 854 854 854 853 852 850 849 848 846 844 841 839 837 834 831 829 827 824 822 820 816 812 809 807 805 803 801 797 792 788 785 781 777 773 768 764 760 755 750 745 739
823 825 827 829 831 833 834 836 837 839 841 842 843 843 844 845 846 848 849 851 852 854 855 856 856 856 856 857 858 858 859 859 859 860 860 860 861 861 861 861 861 861 860 858 855 854 853 852 851 849 847 845 843 841 839 837 835 832 829 827 825 823 820 817 813 810 807 805 804 801 799 795 790 786 783 779 775 770 766 762 757 752 747 742 736
820 822 824 826 828 830 832 833 835 837 839 839 840 841 842 843 845 847 848 850 851 853 854 854 855 855 855 856 857 857 858 858 858 859 859 860 860 860 860 860 860 860 860 860 857 853 852 851 849 848 846 843 841 839 837 835 833 830 827 825 823 820 817 814 811 808 804 803 803 801 797 793 788 785 781 777 773 769 764 760 754 749 745 739 733
817 819 821 823 825 827 829 831 832 835 836 837 838 839 840 841 843 845 847 849 850 852 853 853 854 854 855 856 856 856 857 857 857 858 858 859 859 859 859 859 859 859 859 859 857 853 851 850 848 846 844 842 840 838 836 833 831 828 826 823 820 818 815 812 809 806 802 801 800 799 796 791 786 783 779 775 770 766 762 757 752 747 742 737 731
814 816 819 821 823 825 827 828 830 833 834 835 836 837 838 840 842 844 846 848 849 850 851 852 852 853 854 855 855 855 856 856 857 857 858 858 858 858 858 858 858 857 857 857 856 852 850 848 847 845 842 840 838 837 834 831 828 825 823 821 818 816 813 810 807 804 800 798 797 796 794 789 784 780 776 772 767 763 760 754 749 745 740 735 729
811 813 816 818 821 823 825 826 828 830 831 833 834 835 837 838 840 843 844 846 848 849 850 850 851 852 853 854 854 854 855 855 856 857 857 857 857 857 857 857 857 856 856 855 854 852 849 847 845 843 842 840 837 835 832 829 825 823 820 819 817 815 812 809 806 803 799 796 794 793 792 788 783 779 774 768 764 762 758 752 747 742 738 733 727
807 810 813 815 817 820 822 824 826 828 829 831 833 834 836 837 839 841 843 845 847 847 848 849 850 851 852 852 853 853 854 855 855 856 856 856 856 856 856 856 855 855 854 853 853 851 848 845 844 843 841 839 836 834 831 828 825 822 819 817 815 814 811 807 804 800 798 797 794 791 789 786 782 778 773 766 762 760 756 751 746 741 736 731 725
804 807 810 812 814 816 819 821 824 825 827 829 831 833 835 836 838 840 842 844 845 846 847 848 849 850 851 851 852 853 853 854 855 855 855 855 855 855 855 855 854 853 853 852 851 850 848 845 843 842 840 838 836 833 831 828 825 822 819 816 813 812 809 806 803 798 795 794 793 790 787 783 779 775 770 766 762 759 754 749 745 740 734 729 724
801 805 808 810 812 814 816 819 822 824 826 828 829 832 834 836 837 839 841 843 844 845 846 847 848 849 849 850 851 852 853 853 854 854 854 854 854 854 854 853 853 852 852 851 850 849 847 845 842 841 840 838 836 834 831 828 823 819 817 815 813 810 807 804 802 799 794 790 788 787 784 780 776 771 767 764 761 758 753 749 744 739 733 727 721
799 803 806 808 810 812 814 817 820 822 824 827 828 830 833 835 837 838 840 841 842 843 845 846 847 848 848 849 850 851 852 853 853 853 853 853 853 853 853 852 852 852 851 850 849 848 847 845 842 840 839 837 835 833 832 830 826 821 816 812 809 807 805 802 799 797 795 791 786 784 782 778 774 770 766 762 759 756 752 747 742 737 731 725 719
797 801 804 806 808 810 813 815 818 820 823 825 827 829 831 833 835 837 838 839 841 842 844 845 846 847 848 849 849 850 851 852 852 852 852 852 852 852 852 851 851 851 851 850 849 847 846 844 842 840 839 837 835 833 832 830 828 826 822 815 808 805 803 800 797 794 791 789 786 782 779 776 772 769 765 761 758 755 750 745 740 735 729 723 717
795 798 801 804 806 809 811 814 816 819 821 823 825 827 830 832 834 835 836 838 839 841 843 844 845 846 847 848 848 849 850 850 851 851 851 851 851 851 851 851 851 851 850 849 848 847 846 844 842 841 839 837 835 833 831 830 828 826 825 823 816 810 804 799 797 794 790 787 784 780 776 773 769 766 763 760 757 754 750 744 739 733 727 721 714
793 797 800 802 804 807 810 813 815 818 819 821 823 826 828 830 832 834 835 836 838 840 841 842 843 845 846 847 847 848 849 849 849 850 850 850 849 850 850 850 850 850 849 849 848 846 845 844 842 841 839 837 835 833 831 830 829 827 826 824 820 815 809 801 795 794 793 789 785 781 777 774 770 766 762 759 756 753 750 745 739 733 727 721 714
791 795 798 801 803 806 808 811 814 817 819 821 823 826 827 829 830 832 833 835 837 838 839 841 842 843 844 845 846 847 847 848 848 848 848 848 848 848 849 849 849 849 848 848 847 846 845 844 843 841 840 838 836 835 833 831 831 828 826 824 820 815 812 804 794 790 791 789 784 780 778 777 773 767 763 760 757 753 750 746 740 736 730 724 718
790 793 796 799 802 804 807 810 813 815 818 821 823 826 827 828 829 830 832 834 835 837 838 839 841 842 843 844 845 845 846 846 847 847 847 847 846 846 847 847 847 847 847 847 846 846 845 844 843 842 840 838 836 835 834 832 830 828 825 824 821 817 814 809 800 790 788 788 785 779 776 777 775 769 765 763 759 755 752 747 742 738 732 727 722
788 792 795 797 800 803 806 809 812 814 817 820 822 824 826 828 829 830 831 832 834 835 837 838 840 841 842 843 843 844 845 845 845 845 845 845 845 845 845 845 846 846 846 845 845 845 844 843 843 841 840 838 837 835 834 832 829 827 824 822 821 818 815 813 807 797 791 790 788 781 776 776 776 771 766 764 761 757 753 749 744 740 735 730 726
787 790 793 796 799 802 805 808 811 813 816 819 821 823 825 826 828 829 830 831 832 834 835 837 838 840 840 841 842 843 843 843 844 844 844 844 844 844 844 844 845 845 844 844 844 843 843 842 842 841 839 838 836 834 834 832 829 826 823 820 819 817 815 813 809 802 795 793 791 785 778 776 776 773 767 764 762 758 754 749 746 742 737 733 729
787 789 792 795 798 801 804 807 810 812 815 817 820 822 824 825 827 828 829 830 831 833 834 836 837 838 839 840 840 841 841 842 842 842 842 843 842 842 843 843 844 844 843 843 842 841 841 841 840 839 838 837 836 833 832 831 829 826 824 820 817 815 812 810 807 803 798 796 794 788 780 776 776 773 768 764 762 758 754 751 748 744 739 735 732
786 788 791 794 796 800 803 806 808 811 814 816 818 821 822 824 825 826 827 828 830 831 833 835 836 837 838 838 839 839 840 840 840 840 840 841 841 841 841 842 842 842 841 841 840 840 839 839 839 837 836 835 834 832 830 829 828 826 824 820 817 814 810 806 804 802 799 797 795 792 784 778 776 774 769 765 762 758 755 752 749 745 741 737 734
786 788 790 793 796 799 802 805 807 810 812 815 817 819 821 822 823 824 826 827 828 830 832 833 835 836 836 837 837 837 838 838 838 838 839 839 839 839 840 840 840 839 839 839 838 838 838 837 836 835 834 832 831 829 828 827 826 824 822 819 816 814 810 805 801 799 798 795 794 792 787 780 777 775 769 765 763 758 754 753 750 746 743 740 737
785 787 790 793 796 798 801 804 806 808 811 813 816 818 820 820 821 823 824 825 827 829 831 832 833 834 835 835 835 836 836 836 837 837 837 837 837 838 838 838 837 837 837 837 836 836 836 835 834 833 831 830 829 827 826 825 824 822 820 818 815 814 811 806 800 797 796 794 793 791 788 782 779 775 770 765 763 760 756 754 751 747 744 742 738
783 786 789 792 796 798 801 803 805 807 809 812 815 817 818 819 820 821 822 824 825 827 829 831 832 832 833 833 834 834 834 835 835 835 835 835 836 836 836 836 835 835 835 835 835 835 834 833 833 832 830 828 827 825 824 823 821 820 819 817 815 813 811 807 802 797 793 793 793 791 787 783 780 777 771 764 760 759 758 755 752 749 746 743 740
783 786 788 791 795 798 801 803 805 806 808 810 813 815 816 817 819 820 821 822 824 826 827 829 830 830 831 831 832 832 833 833 833 833 833 834 834 834 834 833 833 833 833 833 833 833 833 832 831 830 828 827 825 823 822 821 819 818 818 816 814 812 809 807 804 800 794 790 791 791 787 783 780 778 775 768 761 756 756 756 753 751 748 745 741